TimeMDT,TemperatureF,Dew PointF,Humidity,Sea Level PressureIn,VisibilityMPH,Wind Direction,Wind SpeedMPH,Gust SpeedMPH,PrecipitationIn,Events,Conditions,WindDirDegrees,DateUTC
12:15 AM,13.1,0.9,58,30.14,10.0,WNW,4.6,-,N/A,,Overcast,300,2013-03-26 06:15:00
12:35 AM,12.2,1.2,61,30.14,10.0,Calm,Calm,-,N/A,,Overcast,0,2013-03-26 06:35:00
12:55 AM,12.7,1.9,62,30.13,10.0,Calm,Calm,-,N/A,,Overcast,0,2013-03-26 06:55:00
1:15 AM,12.4,0.3,59,30.13,10.0,Calm,Calm,-,N/A,,Overcast,0,2013-03-26 07:15:00
1:35 AM,10.4,0.3,64,30.12,10.0,Calm,Calm,-,N/A,,Scattered Clouds,0,2013-03-26 07:35:00
1:55 AM,12.0,1.4,62,30.12,10.0,Calm,Calm,-,N/A,,Scattered Clouds,0,2013-03-26 07:55:00
2:15 AM,10.4,1.4,67,30.12,10.0,Calm,Calm,-,N/A,,Mostly Cloudy,0,2013-03-26 08:15:00
2:35 AM,11.1,0.9,63,30.11,10.0,Calm,Calm,-,N/A,,Scattered Clouds,0,2013-03-26 08:35:00
2:55 AM,11.1,1.6,66,30.11,10.0,Calm,Calm,-,N/A,,Clear,0,2013-03-26 08:55:00
3:15 AM,9.5,1.0,69,30.10,10.0,Calm,Calm,-,N/A,,Scattered Clouds,0,2013-03-26 09:15:00
3:35 AM,9.3,2.3,73,30.10,10.0,Calm,Calm,-,N/A,,Mostly Cloudy,0,2013-03-26 09:35:00
3:55 AM,10.6,2.8,71,30.10,10.0,Calm,Calm,-,N/A,,Overcast,0,2013-03-26 09:55:00
4:15 AM,9.1,2.8,76,30.09,10.0,NW,3.5,-,N/A,,Overcast,310,2013-03-26 10:15:00
4:35 AM,11.1,3.0,70,30.09,10.0,Calm,Calm,-,N/A,,Overcast,0,2013-03-26 10:35:00
4:55 AM,10.9,2.5,69,30.09,10.0,Calm,Calm,-,N/A,,Mostly Cloudy,0,2013-03-26 10:55:00
5:15 AM,10.2,2.8,72,30.10,10.0,Calm,Calm,-,N/A,,Overcast,0,2013-03-26 11:15:00
5:35 AM,10.6,3.4,73,30.09,10.0,Calm,Calm,-,N/A,,Overcast,0,2013-03-26 11:35:00
5:55 AM,10.9,4.1,74,30.08,10.0,Calm,Calm,-,N/A,,Overcast,0,2013-03-26 11:55:00
6:15 AM,10.4,3.7,74,30.09,10.0,Calm,Calm,-,N/A,,Overcast,0,2013-03-26 12:15:00
6:35 AM,11.7,4.1,72,30.09,10.0,Calm,Calm,-,N/A,,Overcast,0,2013-03-26 12:35:00
6:55 AM,12.6,4.8,71,30.08,10.0,Calm,Calm,-,N/A,,Overcast,0,2013-03-26 12:55:00
7:15 AM,11.5,4.3,73,30.10,10.0,Calm,Calm,-,N/A,,Overcast,0,2013-03-26 13:15:00
7:35 AM,12.4,5.0,72,30.10,10.0,Calm,Calm,-,N/A,,Mostly Cloudy,0,2013-03-26 13:35:00
7:55 AM,13.5,5.4,70,30.10,10.0,Calm,Calm,-,N/A,,Overcast,0,2013-03-26 13:55:00
8:15 AM,15.4,5.4,64,30.10,10.0,Calm,Calm,-,N/A,,Mostly Cloudy,0,2013-03-26 14:15:00
8:35 AM,14.9,5.7,67,30.09,10.0,Calm,Calm,-,N/A,,Mostly Cloudy,0,2013-03-26 14:35:00
8:55 AM,17.6,5.9,60,30.09,10.0,Calm,Calm,-,N/A,,Overcast,0,2013-03-26 14:55:00
9:15 AM,19.4,6.1,56,30.09,10.0,Calm,Calm,-,N/A,,Overcast,0,2013-03-26 15:15:00
9:35 AM,21.2,7.0,54,30.08,10.0,Calm,Calm,-,N/A,,Overcast,0,2013-03-26 15:35:00
9:55 AM,23.4,8.2,53,30.08,10.0,Calm,Calm,-,N/A,,Overcast,0,2013-03-26 15:55:00
10:15 AM,23.2,9.3,55,30.08,10.0,SW,3.5,-,N/A,,Overcast,230,2013-03-26 16:15:00
10:35 AM,25.5,8.8,49,30.08,10.0,Calm,Calm,-,N/A,,Overcast,0,2013-03-26 16:35:00
10:55 AM,25.7,9.5,50,30.07,10.0,Calm,Calm,-,N/A,,Overcast,0,2013-03-26 16:55:00
11:15 AM,30.2,9.1,41,30.07,10.0,Calm,Calm,-,N/A,,Overcast,0,2013-03-26 17:15:00
11:35 AM,30.7,9.7,41,30.07,10.0,Calm,Calm,-,N/A,,Mostly Cloudy,0,2013-03-26 17:35:00
11:55 AM,36.0,9.1,33,30.04,10.0,Calm,Calm,-,N/A,,Scattered Clouds,0,2013-03-26 17:55:00
12:15 PM,36.7,9.1,32,30.03,10.0,Calm,Calm,-,N/A,,Clear,0,2013-03-26 18:15:00
12:35 PM,37.6,10.4,33,30.02,10.0,Calm,Calm,-,N/A,,Clear,0,2013-03-26 18:35:00
12:55 PM,39.4,11.3,32,30.02,10.0,Calm,Calm,-,N/A,,Scattered Clouds,0,2013-03-26 18:55:00
1:15 PM,41.4,14.4,33,30.00,10.0,Calm,Calm,-,N/A,,Scattered Clouds,0,2013-03-26 19:15:00
1:35 PM,39.4,14.5,36,30.00,10.0,Calm,Calm,-,N/A,,Mostly Cloudy,0,2013-03-26 19:35:00
1:55 PM,39.2,14.0,36,30.00,10.0,Calm,Calm,-,N/A,,Overcast,0,2013-03-26 19:55:00
2:15 PM,39.6,15.4,38,29.99,10.0,Calm,Calm,-,N/A,,Overcast,0,2013-03-26 20:15:00
2:35 PM,40.8,17.1,38,29.99,10.0,Calm,Calm,-,N/A,,Overcast,0,2013-03-26 20:35:00
2:55 PM,43.0,16.2,34,29.98,10.0,Calm,Calm,-,N/A,,Overcast,0,2013-03-26 20:55:00
3:15 PM,43.2,17.2,35,29.97,10.0,West,3.5,-,N/A,,Overcast,260,2013-03-26 21:15:00
3:35 PM,41.9,18.3,39,29.96,10.0,Calm,Calm,-,N/A,,Overcast,0,2013-03-26 21:35:00
3:55 PM,42.3,17.2,37,29.95,10.0,Calm,Calm,-,N/A,,Overcast,0,2013-03-26 21:55:00
4:15 PM,42.6,17.8,37,29.95,10.0,Calm,Calm,-,N/A,,Overcast,0,2013-03-26 22:15:00
4:35 PM,42.4,15.8,34,29.94,10.0,Calm,Calm,-,N/A,,Overcast,0,2013-03-26 22:35:00
4:55 PM,41.0,18.0,40,29.95,10.0,Calm,Calm,-,N/A,,Overcast,0,2013-03-26 22:55:00
5:15 PM,40.5,19.4,43,29.96,10.0,Calm,Calm,-,N/A,,Overcast,0,2013-03-26 23:15:00
5:35 PM,40.3,19.6,44,29.96,10.0,Calm,Calm,-,N/A,,Overcast,0,2013-03-26 23:35:00
5:55 PM,40.8,19.4,42,29.97,10.0,Calm,Calm,-,N/A,,Overcast,0,2013-03-26 23:55:00
6:15 PM,42.1,18.1,38,29.96,10.0,ESE,3.5,-,N/A,,Mostly Cloudy,110,2013-03-27 00:15:00
6:35 PM,41.4,19.0,41,29.96,10.0,ENE,4.6,-,N/A,,Scattered Clouds,70,2013-03-27 00:35:00
6:55 PM,41.5,18.5,40,29.95,10.0,ENE,5.8,-,N/A,,Mostly Cloudy,60,2013-03-27 00:55:00
7:15 PM,41.2,18.0,39,29.95,10.0,Calm,Calm,-,N/A,,Overcast,0,2013-03-27 01:15:00
7:35 PM,40.5,17.8,40,29.95,10.0,Calm,Calm,-,N/A,,Overcast,0,2013-03-27 01:35:00
7:55 PM,39.7,18.9,43,29.95,10.0,Calm,Calm,-,N/A,,Overcast,0,2013-03-27 01:55:00
8:15 PM,39.9,19.2,43,29.95,10.0,Calm,Calm,-,N/A,,Overcast,0,2013-03-27 02:15:00
8:35 PM,39.0,20.7,48,29.97,10.0,Calm,Calm,-,N/A,,Overcast,0,2013-03-27 02:35:00
8:55 PM,39.6,21.0,48,29.99,10.0,West,10.4,-,N/A,,Overcast,270,2013-03-27 02:55:00
9:15 PM,38.3,22.6,53,29.99,10.0,North,5.8,-,N/A,,Overcast,350,2013-03-27 03:15:00
9:35 PM,39.2,22.3,51,29.99,10.0,NNE,5.8,-,N/A,,Overcast,20,2013-03-27 03:35:00
9:55 PM,38.3,22.8,54,29.99,10.0,ESE,4.6,-,N/A,,Overcast,120,2013-03-27 03:55:00
10:15 PM,37.0,23.5,58,29.99,10.0,Calm,Calm,-,N/A,,Overcast,0,2013-03-27 04:15:00
10:35 PM,36.9,23.4,58,29.99,10.0,Calm,Calm,-,N/A,,Mostly Cloudy,0,2013-03-27 04:35:00
10:55 PM,36.9,22.8,57,29.99,10.0,Calm,Calm,-,N/A,,Scattered Clouds,0,2013-03-27 04:55:00
11:15 PM,35.2,23.0,61,29.98,10.0,Calm,Calm,-,N/A,,Clear,0,2013-03-27 05:15:00
11:35 PM,34.2,23.0,64,29.98,10.0,Calm,Calm,-,N/A,,Clear,0,2013-03-27 05:35:00
11:55 PM,33.8,23.4,66,29.99,10.0,Calm,Calm,-,N/A,,Scattered Clouds,0,2013-03-27 05:55:00